STARLINK-34404, 64442

Orbit data source: Space-Track

STARLINK-34404, 64442 is a payload satellite owned by SpaceX/Seattle (US) in LEO that was launched on Wed, 18 Jun 2025 UTC via an FALCON 9 launch vehicle from the Air Force Eastern Test Range (AFETR). Payload-class satellites include a variety of spacecraft equipped with specific instruments for various scientific and technological missions. These include communications satellites like Starlink; space stations such as the ISS; scientific satellites like the Hubble; Earth observation satellites from companies like Planet Labs, Umbra, and HawkEye 360; GPS; miniature CubeSats for education and research; and military/defense satellites.

Loading next visibility...
Identifier
64442, 2025-130E
Orbit
LEO
Country
Flag of USUS
Related business
Manufacturer
SpaceX/Seattle
Mission
Operational Commercial Communications
Bus & Motor
STARLINK V2MO, Unknown motor
Mass
575 kg wet, ~530 kg dry
Launch date (UTC)
2025-06-18 (1 year ago)
Launch vehicle
FALCON 9
Launch site
Air Force Eastern Test Range (AFETR)
Object type
Payload
Rocket body
Debris
Shape & HBR
Box + 2 Pan, 17.7 m
Radar Cross Section
36.964 m², Large (>1 m²)

Expand to show TLE details & history
Last TLE update: 18 hours ago

TLE from 18 hours ago
0 STARLINK-34404
1 64442U 25130E   26171.13940611  .00016647  00000-0  50267-3 0  9990
2 64442  53.1605 331.6056 0001314  94.0081 266.1071 15.34403242 56403
Epoch: 2026-06-20T03:20Z
TLE epoch observation values (Epoch: 2026-06-20T03:20:44.687Z)
Latitude
-0.00011°
Longitude
13.061°
Altitude
463.656 km
Speed
7.636 km/s
True Right ascension
22h 06m 25s
True Declination
0° 00' 00"
Sunlit
Object was in full shadow at epoch
Visualization orbit readout
Latitude
Unknown
Longitude
Unknown
Altitude
Unknown
Speed
Unknown
Apparent Right ascension
Unknown
Apparent Declination
Unknown
Sunlit
N/A
Visualization observer readout
Local Sidereal Time
08:33:49
Azimuth
Unknown
Elevation
Unknown
Doppler factor
Unknown
Orbital elements
Apogee altitude
463.849 km
Perigee altitude
462.051 km
Semi-major axis
6,841.087 km
Eccentricity
0.00013
Inclination
53.1605°
RAAN
331.6056°
Arg. of periapsis
94.0081°
True anomaly
266.09208°
Mean anomaly
266.1071°
Eccentric anomaly
266.09959°
Mean motion
3.8358 °/min
Orbital period
93.85 mins
BSTAR
0.00050267
Loading maneuver chart data...
Computing Atmospheric mass density...
Loading historical data...
Loading historical data...
Loading historical data...
Loading historical data...
Loading historical data...
Loading historical data...
Loading historical data...

Documentation

Showing up to 5 results
|